Weather History for West Palm Beach, FL

Change the Weather History Date:

Sunday, October 23, 2011

  Actual Average Record
Temperature  
Mean Temperature 74 °F 77 °F  
Max Temperature 83 °F 84 °F 92 °F (1959)
Min Temperature 64 °F 70 °F 47 °F (1923)
Degree Days  
Heating Degree Days 0 0  
Month to date heating degree days 0 0  
Since 1 July heating degree days 0 0  
Cooling Degree Days 9 12  
Month to date cooling degree days 308 323  
Year to date cooling degree days 4200 3531  
Growing Degree Days 23 (Base 50)    
Moisture  
Dew Point 64 °F    
Average Humidity 76    
Maximum Humidity 93    
Minimum Humidity 58    
Precipitation  
Precipitation 0.00 in 0.16 in 8.47 in (1933)
Month to date precipitation 3.54 3.94  
Year to date precipitation 39.31 53.01  
Snow  
Snow 0.00 in - - ()
Month to date snowfall 0.0  
Since 1 July snowfall 0.0  
Since 1 September snowfall 0.0  
Snow Depth 0.00 in    
Sea Level Pressure  
Sea Level Pressure 29.94 in    
Wind  
Wind Speed 9 mph (North)    
Max Wind Speed 20 mph    
Max Gust Speed 24 mph    
Visibility 10 miles    
Events      
T = Trace of Precipitation, MM = Missing Value Source: NWS Daily Summary

Daily Weather History Graph

Daily Weather History Graph

Search for Another Location

Airport:

Trip Planner

Search our weather history database for the weather conditions in past years. The results will help you decide how hot, cold, wet, or windy it might be!

Date:

Astronomy

Oct. 23, 2011 Rise Set
Actual Time 7:24 AM EDT 6:44 PM EDT
Civil Twilight 7:00 AM EDT 7:08 PM EDT
Nautical Twilight 6:33 AM EDT 7:35 PM EDT
Astronomical Twilight 6:06 AM EDT 8:02 PM EDT
Moon 3:48 AM EDT (10/23) 4:19 PM EDT (10/23)
Length of Visible Light 12h 07m
Length of Day
11h 20m
Waning Crescent, 14% of the Moon is Illuminated
Oct 23
Waning Crescent
Oct 26
New
Nov 2
First Quarter
Nov 10
Full
Nov 18
Last Quarter

Hourly Weather History & Observations

Time (EDT) Temp. Heat Index Dew Point Humidity Pressure Visibility Wind Dir Wind Speed Gust Speed Precip Events Conditions
12:53 AM 64.9 °F - 62.1 °F 90% 29.94 in 10.0 mi NW 5.8 mph - N/A   Scattered Clouds
1:53 AM 64.9 °F - 62.1 °F 90% 29.93 in 10.0 mi NNW 5.8 mph - N/A   Scattered Clouds
2:53 AM 64.0 °F - 62.1 °F 93% 29.92 in 10.0 mi NNW 3.5 mph - N/A   Partly Cloudy
3:53 AM 66.0 °F - 62.1 °F 87% 29.91 in 10.0 mi North 4.6 mph - N/A   Mostly Cloudy
4:53 AM 66.9 °F - 62.1 °F 84% 29.90 in 10.0 mi NNW 6.9 mph - N/A   Mostly Cloudy
5:53 AM 66.0 °F - 62.1 °F 87% 29.91 in 10.0 mi NNW 9.2 mph - N/A   Mostly Cloudy
6:53 AM 66.0 °F - 62.1 °F 87% 29.93 in 10.0 mi NNW 8.1 mph - N/A   Mostly Cloudy
7:53 AM 66.0 °F - 63.0 °F 90% 29.94 in 10.0 mi NNW 4.6 mph - N/A   Mostly Cloudy
8:53 AM 71.1 °F - 64.0 °F 78% 29.96 in 10.0 mi NNW 4.6 mph - N/A   Mostly Cloudy
9:53 AM 79.0 °F - 64.9 °F 62% 29.96 in 10.0 mi NE 9.2 mph 20.7 mph N/A   Mostly Cloudy
10:53 AM 79.0 °F - 64.9 °F 62% 29.97 in 10.0 mi NE 16.1 mph - N/A   Mostly Cloudy
11:53 AM 81.0 °F 83.0 °F 66.0 °F 60% 29.96 in 10.0 mi NE 16.1 mph - N/A   Scattered Clouds
12:53 PM 80.1 °F 82.1 °F 66.0 °F 62% 29.95 in 10.0 mi NE 15.0 mph 21.9 mph N/A   Mostly Cloudy
1:53 PM 82.0 °F 84.1 °F 66.0 °F 58% 29.93 in 10.0 mi NE 16.1 mph - N/A   Mostly Cloudy
2:53 PM 82.0 °F 84.1 °F 66.0 °F 58% 29.92 in 10.0 mi NNE 12.7 mph - N/A   Mostly Cloudy
3:53 PM 81.0 °F 82.7 °F 64.9 °F 58% 29.92 in 10.0 mi NE 13.8 mph - N/A   Mostly Cloudy
4:53 PM 81.0 °F 82.7 °F 64.9 °F 58% 29.92 in 10.0 mi NNE 11.5 mph 21.9 mph N/A   Scattered Clouds
5:53 PM 79.0 °F - 64.9 °F 62% 29.93 in 10.0 mi NNE 11.5 mph - N/A   Mostly Cloudy
6:53 PM 77.0 °F - 64.9 °F 66% 29.94 in 10.0 mi North 9.2 mph - N/A   Mostly Cloudy
7:53 PM 75.0 °F - 64.9 °F 71% 29.96 in 10.0 mi NNW 5.8 mph - N/A   Scattered Clouds
8:53 PM 73.9 °F - 66.0 °F 76% 29.97 in 10.0 mi North 6.9 mph - N/A   Mostly Cloudy
9:53 PM 73.0 °F - 66.0 °F 79% 29.98 in 10.0 mi NNW 6.9 mph - N/A   Scattered Clouds
10:53 PM 73.0 °F - 66.0 °F 79% 29.98 in 10.0 mi NW 5.8 mph - N/A   Mostly Cloudy
11:53 PM 73.0 °F - 66.0 °F 79% 29.99 in 10.0 mi NNW 6.9 mph - N/A   Mostly Cloudy